CAPE
0 0 0 0 0 0 0 0 0 0 0 0 0 0 0 0 0 0 0 0 0 0 0 0 0 0 0 0 4 4 3 2 5 2 3 3 3 8 5 0 0 0 0
0 0 0 0 0 0 0 0 0 0 0 0 0 0 0 0 0 0 0 0 0 0 0 0 0 0 0 2 10 12 5 2 7 2 0 1 7 9 1 0 0 1 1
0 0 0 0 0 0 0 0 0 0 0 0 0 0 0 0 0 0 0 0 0 0 0 0 0 0 0 20 25 13 4 0 2 0 0 4 1 9 3 0 3 3 1
2 0 0 0 0 0 0 0 0 0 0 0 0 0 0 0 0 0 0 0 0 0 0 0 0 0 0 7 5 8 7 0 12 0 3 10 12 5 3 3 2 1 2
1 0 0 0 0 0 0 0 0 0 0 0 0 0 0 0 0 0 0 0 0 0 0 0 0 0 0 0 1 3 10 4 1 1 4 0 0 1 1 2 1 1 1
0 0 0 0 0 0 0 0 0 0 0 0 0 0 0 0 0 0 0 0 0 0 0 0 0 0 0 0 0 9 14 2 0 3 0 1 3 1 1 1 2 1 0
2 0 0 0 0 0 0 0 0 0 0 0 0 0 0 0 0 0 0 0 0 0 0 0 0 0 0 0 0 5 14 5 5 3 4 0 2 1 2 1 2 3 2
0 0 0 0 0 0 0 0 0 0 0 0 0 0 0 0 0 0 0 0 0 0 0 0 0 0 0 0 0 0 1 9 6 5 3 4 4 4 5 6 5 3 4
0 0 0 0 0 0 0 0 0 0 0 0 0 0 0 0 0 0 0 0 0 0 0 0 0 0 0 0 0 0 0 0 6 3 2 1 2 3 3 4 5 5 7
0 0 0 0 0 0 0 0 0 0 0 0 0 0 0 0 0 0 0 0 0 0 0 0 0 0 0 0 0 0 0 0 0 1 0 0 0 1 2 3 3 3 6
0 0 0 0 0 0 0 0 0 0 0 0 0 0 0 0 0 0 0 0 0 0 0 0 0 0 0 0 0 0 0 0 0 0 0 0 0 1 1 2 3 3 3
0 0 0 0 0 0 0 0 0 0 0 0 0 0 0 0 0 0 0 0 0 0 0 0 0 0 0 0 0 0 0 0 0 0 0 0 0 0 1 1 1 2 1
0 0 0 0 0 0 0 0 0 0 0 0 0 0 0 0 0 0 0 0 0 0 0 0 0 0 0 0 0 0 0 0 0 0 0 0 0 0 0 1 1 1 1
0 0 0 0 0 0 0 0 0 0 0 0 0 0 0 0 0 0 0 0 0 0 0 0 0 0 0 0 0 0 0 0 0 0 0 0 0 0 0 0 1 1 1
0 0 0 0 0 0 0 0 0 0 0 0 0 0 0 0 0 0 0 0 0 0 0 0 0 0 0 0 0 0 0 0 0 0 0 0 0 0 0 0 0 0 0
0 0 0 0 0 0 0 0 0 0 0 0 0 0 0 0 0 0 0 0 0 0 0 0 0 0 0 0 0 0 0 0 0 0 0 0 0 0 0 0 0 0 0
0 0 0 0 0 0 0 0 0 0 0 0 0 0 0 0 0 0 0 0 0 0 0 0 0 0 0 0 0 0 0 0 0 0 0 0 0 0 0 0 0 0 0
0 0 0 0 0 0 0 0 0 0 0 0 0 0 0 0 0 0 0 0 0 0 0 0 0 0 0 0 0 0 0 0 0 0 0 0 0 0 0 0 0 0 0
0 0 0 0 0 0 0 0 0 0 0 0 0 0 0 0 0 0 0 0 0 0 0 0 0 0 0 0 0 0 0 0 0 0 0 0 0 0 0 0 0 0 0
0 0 0 0 0 0 0 0 0 0 0 0 0 0 0 0 0 0 0 0 0 0 0 0 0 0 0 0 0 0 0 0 0 0 0 0 0 0 0 0 0 0 0
0 0 0 0 0 0 0 0 0 0 0 0 0 0 0 0 0 0 0 0 0 0 0 0 0 0 0 0 0 0 0 0 0 0 0 0 0 0 0 0 0 0 0
0 0 0 0 0 0 0 0 0 0 0 0 0 0 0 0 0 0 0 0 0 0 0 0 0 0 0 0 0 0 0 0 0 0 0 0 0 0 0 0 0 0 0
0 0 0 0 0 0 0 0 0 0 0 0 0 0 0 0 0 0 0 0 0 0 2 2 1 0 0 0 0 0 0 0 0 0 0 0 0 0 0 0 0 0 0
0 0 0 0 0 0 0 0 0 0 0 0 0 2 4 1 0 0 0 0 1 1 0 0 3 2 0 0 0 0 0 0 0 0 0 0 0 0 0 0 0 0 0
0 0 0 0 0 0 0 0 0 0 1 0 0 0 1 1 0 0 0 0 0 0 1 5 4 2 1 2 0 0 0 0 0 0 0 0 0 0 0 0 0 0 0
0 0 0 0 0 0 0 0 0 0 0 0 0 1 0 0 1 2 0 0 1 0 0 3 3 0 5 5 10 2 0 0 0 0 0 0 0 0 0 0 0 0 0
CIN
0 0 0 0 0 0 0 0 0 0 0 0 0 0 0 0 0 0 0 0 0 0 0 0 0 0 0 0 0 0 0 0 -1 -1 -1 -3 0 -1 -15 0 0 0 -3
0 0 0 0 0 0 0 0 0 0 0 0 0 0 0 0 0 0 0 0 0 0 0 0 0 0 0 0 -1 -1 -2 -1 -2 -1 0 -1 -2 -9 -16 0 0 -2 -3
0 0 0 0 0 0 0 0 0 0 0 0 0 0 0 0 0 0 0 0 0 0 0 0 0 0 0 0 0 -1 -1 0 0 0 0 0 0 -3 -1 0 -1 0 0
-41 0 0 0 0 0 0 0 0 0 0 0 0 0 0 0 0 0 0 0 0 0 0 0 0 0 0 0 0 0 0 0 -1 -1 0 -1 -3 -3 -1 -3 -2 -1 -1
-43 -22 0 0 0 0 0 0 0 0 0 0 0 0 0 0 0 0 0 0 0 0 0 0 0 0 0 0 -1 0 -1 -1 -1 0 -1 -1 0 -1 -2 -1 -1 -1 0
-49 -15 0 0 0 0 0 0 0 0 0 0 0 0 0 0 0 0 0 0 0 0 0 0 0 0 0 0 0 0 -2 0 0 0 0 0 0 -2 -1 -1 0 -1 0
-61 0 0 0 0 0 0 0 0 0 0 0 0 0 0 0 0 0 0 0 0 0 0 0 0 0 0 0 0 0 0 0 0 0 0 0 0 0 0 0 0 0 -1
0 0 0 0 0 0 0 0 0 0 0 0 0 0 0 0 0 0 0 0 0 0 0 0 0 0 0 0 0 0 -1 -1 0 0 0 0 0 0 0 0 0 0 0
0 0 0 0 0 0 0 0 0 0 0 0 0 0 0 0 0 0 0 0 0 0 0 0 0 0 0 0 0 0 0 -1 -1 0 0 0 0 0 0 0 0 0 0
0 0 0 0 0 0 0 0 0 0 0 0 0 0 0 0 0 0 0 0 0 0 0 0 0 0 0 0 0 0 0 0 0 0 0 0 0 0 0 0 0 0 0
0 0 0 0 0 0 0 0 0 0 0 0 0 0 0 0 0 0 0 0 0 0 0 0 0 0 0 0 0 0 0 0 0 0 0 0 0 0 0 0 0 0 0
0 0 0 0 0 0 0 0 0 0 0 0 0 0 0 0 0 0 0 0 0 0 0 0 0 0 0 0 0 0 0 0 0 0 0 0 0 0 0 0 0 0 0
0 0 0 0 0 0 0 0 0 0 0 0 0 0 0 0 0 0 0 0 0 0 0 0 0 0 0 0 0 0 0 0 0 0 0 0 0 0 0 0 0 0 0
0 0 0 0 0 0 0 0 0 0 0 0 0 0 0 0 0 0 0 0 0 0 0 0 0 0 0 0 0 0 0 0 0 0 0 0 0 0 0 0 0 0 0
0 0 0 0 0 0 0 0 0 0 0 0 0 0 0 0 0 0 0 0 0 0 0 0 0 0 0 0 0 0 0 0 0 0 0 0 0 0 0 0 0 0 0
0 0 0 0 0 0 0 0 0 0 0 0 0 0 0 0 0 0 0 0 0 0 0 0 0 0 0 0 0 0 0 0 0 0 0 0 0 0 0 0 0 0 0
0 0 0 0 0 0 0 0 0 0 0 0 0 0 0 0 0 0 0 0 0 0 0 0 0 0 0 0 0 0 0 0 0 0 0 0 0 0 0 0 0 0 0
0 0 0 0 0 0 0 0 0 0 0 0 0 0 0 0 0 0 0 0 0 0 0 0 0 0 0 0 0 0 0 0 0 0 0 0 0 0 0 0 0 0 0
0 0 0 0 0 0 0 0 0 0 0 0 0 0 0 0 0 0 0 0 0 0 0 0 0 0 0 0 0 0 0 0 0 0 0 0 0 0 0 0 0 0 0
0 0 0 0 0 0 0 0 0 0 0 0 0 0 0 0 0 0 0 0 0 0 0 0 0 0 0 0 0 0 0 0 0 0 0 0 0 0 0 0 0 0 0
0 0 0 0 0 0 0 0 0 0 0 0 0 0 0 0 0 0 0 0 0 0 0 0 0 0 0 0 0 0 0 0 0 0 0 0 0 0 0 0 0 0 0
0 0 0 0 0 0 0 0 0 0 0 0 0 0 0 0 0 0 0 0 0 0 0 0 0 0 0 0 0 0 0 0 0 0 0 0 0 0 0 0 0 0 0
0 0 0 0 0 0 0 0 0 0 0 0 0 0 0 0 0 0 0 -1 0 0 0 0 0 0 0 0 0 0 0 0 0 0 0 0 0 0 0 0 0 0 0
0 0 0 0 0 0 0 0 0 0 0 0 0 0 0 -1 -1 -1 0 0 -1 -1 0 0 0 0 -1 0 0 0 0 0 0 0 0 0 0 0 0 0 0 0 0
0 0 0 0 0 0 0 0 0 0 0 0 0 0 0 0 0 -1 -1 0 0 0 0 0 0 0 0 0 0 0 0 0 0 0 0 0 0 0 0 0 0 0 0
0 0 0 0 0 0 0 0 -1 0 0 0 0 0 0 -1 -2 -4 0 0 -1 0 0 0 -1 0 0 0 0 -1 0 0 0 0 0 0 0 0 0 0 0 0 0
Wind_Speed
13 15 18 18 17 16 15 16 16 17 17 17 16 15 16 16 16 17 18 19 20 20 17 17 17 17 17 17 16 15 15 17 17 18 18 17 15 15 15 15 17 19 19
13 15 16 18 19 17 17 18 18 18 19 19 19 19 18 17 17 17 17 18 19 20 18 18 18 17 17 17 15 14 15 18 17 17 18 17 15 15 15 17 17 18 18
19 18 18 17 17 16 17 19 21 22 23 23 22 21 20 20 20 19 18 18 18 19 18 19 19 19 19 17 13 16 15 17 17 18 18 17 16 15 15 16 16 15 16
22 23 24 23 19 18 17 17 19 20 22 23 24 24 24 23 23 22 21 20 20 19 20 21 21 21 18 16 17 17 16 17 16 18 17 15 16 16 16 17 16 16 16
23 23 25 25 21 21 21 21 22 21 23 23 24 25 25 25 25 25 25 23 22 22 21 21 21 20 19 17 16 17 15 16 17 17 17 17 17 17 16 17 16 17 16
22 22 24 24 22 24 26 25 27 26 26 24 25 27 28 27 27 27 27 26 25 25 24 23 22 21 20 20 18 14 15 17 18 17 17 17 17 16 17 16 16 16 16
23 21 22 23 24 24 24 25 27 28 29 26 27 29 30 29 30 28 26 27 27 26 25 25 24 24 23 21 19 16 16 17 16 16 17 17 16 17 16 16 17 16 15
25 25 24 24 24 25 27 26 27 30 31 27 31 32 35 34 30 28 27 26 27 27 27 26 25 25 25 24 21 18 17 15 15 17 17 16 16 16 16 16 16 16 16
28 27 27 28 28 27 27 28 29 30 34 30 29 31 33 36 34 31 30 29 28 27 27 26 26 26 26 25 24 22 20 17 15 16 16 17 16 16 15 14 15 15 15
28 28 29 30 30 30 32 32 31 32 33 35 32 33 34 35 38 39 32 32 31 31 30 29 29 28 27 25 24 24 22 19 16 16 17 17 17 16 15 15 15 15 15
29 30 30 30 31 32 33 35 35 34 33 35 35 35 36 38 38 42 47 40 36 35 34 32 31 30 27 25 25 25 23 19 18 17 18 19 19 18 17 16 16 16 15
32 32 33 33 33 34 35 35 36 36 37 37 38 39 39 39 41 43 48 47 46 41 38 36 34 32 30 27 25 23 23 21 20 20 20 21 21 20 18 17 16 16 16
34 35 35 35 35 36 37 37 38 38 38 38 40 41 41 43 42 43 44 46 48 44 41 38 36 34 32 30 28 26 24 23 23 22 22 21 21 21 20 18 17 17 16
36 36 37 36 36 36 37 38 39 40 39 40 41 41 43 42 41 43 47 48 53 49 45 43 37 36 35 33 31 29 29 27 26 25 23 22 21 21 20 19 18 17 16
37 38 39 40 40 39 39 39 39 40 41 42 43 43 44 44 42 42 44 46 51 58 58 47 45 39 38 37 35 34 33 32 30 28 26 24 23 23 22 22 20 18 17
42 42 42 42 43 42 42 42 43 43 43 42 42 44 44 44 45 44 44 45 46 53 63 49 47 44 40 39 38 36 36 35 33 32 30 28 26 25 24 23 22 21 20
42 44 45 45 46 46 46 45 45 45 46 47 45 44 44 43 45 46 45 46 47 47 59 57 49 45 44 42 40 38 38 37 37 35 33 32 31 28 26 24 23 22 21
44 46 48 49 49 50 50 49 50 49 49 50 49 49 47 44 45 44 45 48 48 47 53 61 52 50 47 44 43 42 40 39 38 37 35 34 33 31 30 28 26 24 23
49 50 51 53 53 54 55 54 54 55 54 53 52 52 51 50 49 46 46 47 47 47 49 56 58 50 48 43 43 43 43 41 40 39 38 37 35 34 32 31 30 27 25
51 53 54 56 57 56 56 57 58 58 58 57 56 55 54 53 54 52 50 49 49 50 49 53 57 55 51 46 44 46 46 43 44 41 41 40 38 37 35 34 32 30 28
53 55 57 58 58 59 58 59 59 61 62 63 61 58 57 56 57 56 55 55 52 52 52 52 54 53 54 51 51 45 48 46 46 44 44 43 41 40 39 37 35 32 30
56 57 58 59 61 59 58 60 61 62 62 65 66 64 63 62 60 58 58 59 57 57 57 55 55 55 54 52 48 48 47 49 53 44 45 47 42 44 42 40 37 35 32
57 58 58 58 60 60 60 61 61 62 64 66 67 67 68 64 62 61 61 61 62 61 60 57 58 57 55 49 45 47 46 48 52 43 41 51 45 50 44 43 41 38 37
56 57 57 57 58 58 60 61 61 61 62 63 63 64 65 66 64 64 65 66 64 62 62 59 60 60 52 49 47 47 47 46 47 45 41 52 45 50 45 44 44 42 40
53 53 53 54 56 57 58 58 57 56 56 58 57 58 60 63 64 65 67 70 70 69 62 61 60 60 58 55 50 48 49 50 53 49 44 48 47 47 45 47 45 45 43
50 50 52 51 52 54 52 51 49 47 48 49 49 50 51 55 59 61 62 66 71 73 65 63 62 62 60 58 56 52 50 53 55 54 47 48 47 44 49 46 46 44 44
Wind_Direction
284 288 290 292 293 293 293 293 295 297 298 302 304 307 310 313 315 317 317 316 313 312 315 317 317 316 315 312 310 309 312 312 309 308 308 311 310 308 308 307 304 300 297
283 285 289 290 290 289 290 290 289 291 292 295 297 299 302 305 309 311 314 315 315 313 313 313 314 314 313 309 307 309 310 309 310 310 306 306 309 310 307 306 303 301 298
286 285 286 287 286 288 288 289 289 289 289 291 292 294 295 297 299 302 307 310 313 314 315 313 310 309 308 309 308 306 307 308 307 309 304 304 303 307 307 305 305 305 302
286 286 285 285 283 283 285 287 288 288 288 288 289 290 291 292 293 296 299 301 305 307 308 309 310 306 305 304 303 306 308 310 308 307 306 305 305 306 305 304 303 302 302
289 287 286 285 279 282 283 284 286 285 286 287 288 288 289 289 290 291 292 294 296 299 302 304 306 307 306 303 304 299 303 307 308 305 305 304 303 303 302 301 300 300 299
295 291 289 286 283 282 284 284 284 283 285 284 287 288 289 289 289 288 288 290 291 293 295 297 299 300 302 302 303 302 300 303 303 302 304 304 303 302 301 300 300 298 296
303 299 297 292 288 285 284 283 284 282 284 285 286 287 287 286 286 286 287 287 287 289 292 293 294 295 296 298 298 296 296 300 300 302 303 302 301 300 298 297 297 297 297
312 304 300 297 294 291 289 286 284 285 284 280 283 286 286 285 282 281 282 283 285 287 288 289 290 291 291 291 291 291 290 291 292 297 299 299 299 298 298 297 296 294 294
321 316 308 303 298 295 292 290 286 284 284 281 279 282 287 284 289 286 279 280 282 283 285 287 287 287 288 288 288 287 287 284 284 292 294 297 296 296 295 295 295 295 294
325 321 315 310 305 299 294 292 290 287 287 284 283 278 280 284 285 287 289 284 281 281 282 283 283 284 285 286 285 285 283 279 278 285 290 292 291 291 291 291 291 291 292
326 323 320 316 308 305 301 296 292 290 288 286 283 284 280 279 282 282 281 284 285 281 281 281 280 280 280 281 282 282 281 275 275 279 285 289 287 286 286 285 286 286 287
324 323 319 316 311 308 305 302 299 294 291 289 287 284 281 281 280 279 280 281 282 284 281 279 277 277 277 276 276 276 276 272 272 276 281 285 284 282 281 280 280 281 283
324 323 322 320 315 310 306 304 300 297 297 293 290 287 285 282 281 281 280 282 281 283 283 281 276 276 275 274 273 270 269 269 271 274 277 278 278 278 277 276 275 277 279
320 319 319 318 318 317 313 309 303 300 298 295 294 292 288 286 284 281 279 279 279 280 280 279 281 274 274 273 272 269 270 267 268 270 272 273 271 271 271 272 273 274 275
319 318 317 315 314 313 313 311 308 305 300 297 295 293 290 289 287 285 282 279 278 277 275 278 277 277 273 272 271 269 268 267 267 268 268 268 268 268 268 267 268 269 271
315 314 313 313 312 312 311 309 307 305 303 302 299 295 292 290 288 287 284 282 279 277 276 278 276 276 274 272 270 268 267 267 265 265 265 266 265 264 264 264 265 267 268
315 312 311 310 309 308 309 308 307 305 303 300 299 298 296 295 290 287 285 284 282 280 276 278 278 276 273 271 270 268 267 265 265 262 263 263 263 263 262 260 261 263 265
313 311 310 308 307 307 306 305 302 302 300 299 298 297 295 296 294 291 288 284 281 281 278 277 278 276 273 271 269 267 266 265 263 262 260 261 261 261 261 260 260 260 261
310 309 308 304 305 304 303 303 300 298 296 295 294 293 293 293 291 291 290 287 285 282 279 277 277 277 274 273 270 268 265 265 264 262 260 259 259 259 258 258 258 258 259
309 308 306 304 302 302 302 299 297 295 293 292 291 291 290 289 287 287 287 286 285 283 281 277 276 276 274 273 269 267 266 264 263 262 261 260 258 257 256 256 256 256 257
311 309 307 304 302 301 299 298 295 293 291 289 289 289 288 286 285 284 283 281 282 280 279 278 277 275 273 272 268 268 266 266 264 262 260 258 257 257 256 254 254 253 253
313 311 309 307 304 302 301 298 296 293 290 288 286 286 285 285 285 283 282 280 278 277 276 275 275 274 274 272 273 268 266 265 265 261 259 258 255 256 256 253 251 250 248
314 312 310 309 305 304 303 300 297 294 291 288 287 286 284 283 283 282 281 279 277 275 273 273 273 272 273 274 272 269 267 263 264 266 258 259 255 255 254 253 250 248 248
316 314 312 311 308 306 304 301 299 296 293 290 288 287 285 283 282 281 280 278 276 274 272 271 269 271 272 273 271 269 267 267 267 265 257 260 256 256 254 253 249 247 247
319 318 317 315 312 310 308 304 301 298 295 293 292 290 288 285 284 281 279 276 275 273 273 271 270 269 269 268 268 268 265 263 264 263 258 261 261 258 255 253 252 246 245
321 320 318 318 316 313 312 308 306 304 301 299 297 296 293 291 288 284 281 277 274 271 272 271 269 268 267 266 264 261 261 260 261 264 261 257 259 259 260 256 252 250 247